Location: Bidwell Hollow
(37.7387°N, 90.1707°W)
Time: 01:30:04
(UTC+00:00)

Vanguard 1 Rocket - Visible Passes

Search period start: 14 May 2026 00:00
Search period end: 24 May 2026 00:00
Orbit: 655 x 4212 km, 34.3° (Epoch: 13 May)

Date Brightness Start Highest point End Pass type
(mag) Time Alt. Az. Time Alt. Az. Time Alt. Az.
14 May 10.7 02:48:16 10° W 03:07:09 55° SSW 03:23:22 27° SSE visible
14 May 11.2 05:20:11 10° W 05:37:21 25° SW 05:40:29 24° SW visible
15 May 10.5 01:34:44 10° W 01:51:21 65° SSW 02:14:33 14° SE visible
15 May 11.0 04:03:29 10° W 04:22:15 37° SW 04:31:40 29° S visible
16 May 10.8 02:48:47 10° W 03:06:45 48° SSW 03:22:54 25° SSE visible
16 May 11.3 05:22:18 10° W 05:36:41 19° SW 05:40:02 19° SW visible
17 May 10.5 01:35:13 10° W 01:51:10 59° SSW 02:14:11 13° SE visible
17 May 11.1 04:04:31 10° W 04:21:41 30° SW 04:31:19 24° SSW visible
18 May 10.9 02:49:27 10° W 03:06:23 41° SW 03:22:39 21° SSE visible
18 May 11.5 05:26:04 10° WSW 05:36:09 14° SW 05:39:48 14° SW visible
19 May 10.6 01:35:46 10° W 01:51:01 52° SSW 02:14:02 12° SE visible
19 May 11.3 04:06:03 10° W 04:21:13 24° SW 04:31:11 19° SSW visible
20 May 11.0 02:50:21 10° W 03:06:04 35° SW 03:22:37 17° SSE visible
21 May 10.7 01:36:27 10° W 01:50:54 45° SSW 02:13:31 10° SSE visible
21 May 11.5 04:08:25 10° WSW 04:20:53 18° SW 04:31:15 14° SSW visible
22 May 11.2 02:51:36 10° W 03:05:51 28° SW 03:22:46 13° S visible
23 May 10.8 01:37:17 10° W 01:50:50 38° SSW 02:11:46 10° SSE visible
23 May 11.6 04:12:49 10° WSW 04:20:43 13° SW 04:29:29 10° SSW visible
